Weather in Glubokoye

Russia / Altai Krai     52°59′24″N   80°41′02″E
temp.,
°C
wind,
m/s
gust,
m/s
humid.,
%
clouds,
%
prec.,
mm/h
press.,
hPa
HPBL,
m
27 november, sat
sat2701:00−13ssw512905 0.0 1037245
04:00−11sw5139076 0.0 1037409
07:00−11sw61390100 0.0 1038435
10:00−10sw71490100 0.0 1038513
13:00−8ssw81592100 0.1 1037599
16:00−6sw91787100 0.1 1036675
19:00−6sw9178593 0.2 1036681
22:00−6sw9188595 0.0 1035612
28 november, sun
sun2801:00−7sw91884100 0.0 1034591
04:00−7sw91784100 0.0 1034554
07:00−7sw81684100 0.0 1035488
10:00−7sw81486100 0.0 1036430
13:00−7sw7138898 0.0 1037426
16:00−7sw6128872 0.0 1037364
19:00−8sw5118841 0.0 1039245
22:00−10sw410915 0.0 1039164
29 november, mon
mon2901:00−12sw399111 0.0 1039113
04:00−13ssw369085 0.0 103966
07:00−12ssw2488100 0.0 103859
10:00−14s229037 0.0 103732
13:00−8s358382 0.0 1036109
16:00−8s35865 0.0 103468
19:00−12s358916 0.0 103445
22:00−11s388398 0.0 103387
30 november, tue
tue3001:00−10ssw3982100 0.0 1032129
04:00−10ssw3784100 0.0 103197
07:00−9ssw3984100 0.0 1030133
10:00−9ssw3984100 0.0 1030135
13:00−7ssw388669 0.0 1030171
16:00−7ssw368887 0.0 103087
19:00−11ssw35895 0.0 103160
22:00−13ssw22925 0.0 103216
1 december, wed
wed101:00−11s45875 0.0 103160
04:00−13s22905 0.0 103115
07:00−14s22915 0.0 103125
10:00−10s49825 0.0 1030103
13:00−6sse310835 0.0 1029186
16:00−6s410845 0.0 1027162
19:00−9sse35865 0.0 102750
22:00−9s37835 0.0 102683